IGO963 VOMM-VOPB

Flight info

Callsign IGO963
Flight time 1h 46m
Altitude 35000
Route IDASO2A IDASO P761 LEGIN
Aircraft A21N/M-SDE2E3FGHIRWXY/LB1

Departure

Time 2026-05-04 01:12
Airport Chennai International Airport (VOMM)

Arrival

Time 2026-05-04 02:59
Airport Veer Savarkar International Airport / INS Utkrosh (VOPB)
Time Latitude Longitude Altitude Speed Heading
2026-05-04 01:12 13.03643 80.35847 5776 ft 280 kts 77°
2026-05-04 01:12 13.04108 80.37797 6538 ft 277 kts 76°
2026-05-04 01:13 13.04559 80.39692 7197 ft 278 kts 76°
2026-05-04 01:13 13.05022 80.41634 7817 ft 282 kts 76°
2026-05-04 01:13 13.05491 80.43605 8482 ft 284 kts 75°
2026-05-04 01:13 13.05958 80.45567 9199 ft 284 kts 75°
2026-05-04 01:14 13.06430 80.47553 9823 ft 287 kts 75°
2026-05-04 01:14 13.06910 80.49565 10161 ft 301 kts 75°
2026-05-04 01:14 13.07412 80.51708 10411 ft 317 kts 76°
2026-05-04 01:14 13.07849 80.53980 10649 ft 333 kts 77°
2026-05-04 01:15 13.08266 80.56368 10881 ft 346 kts 78°
2026-05-04 01:15 13.08691 80.58844 11193 ft 355 kts 77°
2026-05-04 01:15 13.09125 80.61371 11542 ft 363 kts 78°
2026-05-04 01:15 13.09564 80.63932 11995 ft 366 kts 77°
2026-05-04 01:16 13.10005 80.66510 12526 ft 367 kts 77°
2026-05-04 01:16 13.10450 80.69105 12955 ft 372 kts 77°
2026-05-04 01:16 13.10899 80.71727 13470 ft 374 kts 77°
2026-05-04 01:16 13.11345 80.74325 13951 ft 376 kts 79°
2026-05-04 01:17 13.11804 80.76991 14350 ft 380 kts 79°
2026-05-04 01:17 13.12263 80.79669 14823 ft 382 kts 78°
2026-05-04 01:17 13.12687 80.82373 15238 ft 387 kts 82°
2026-05-04 01:17 13.12790 80.85146 15652 ft 392 kts 89°
2026-05-04 01:18 13.12617 80.87945 16107 ft 394 kts 94°
2026-05-04 01:18 13.12381 80.90761 16528 ft 397 kts 94°
2026-05-04 01:18 13.12134 80.93601 16863 ft 402 kts 94°
2026-05-04 01:18 13.11887 80.96473 17206 ft 405 kts 94°
2026-05-04 01:19 13.11641 80.99361 17594 ft 407 kts 95°
2026-05-04 01:19 13.11395 81.02263 17946 ft 410 kts 94°
2026-05-04 01:19 13.11148 81.05183 18237 ft 412 kts 95°
2026-05-04 01:19 13.10903 81.08091 18502 ft 414 kts 95°
2026-05-04 01:20 13.10654 81.11048 18724 ft 417 kts 95°
2026-05-04 01:20 13.10403 81.14021 18958 ft 419 kts 95°
2026-05-04 01:20 13.10152 81.17003 19187 ft 420 kts 95°
2026-05-04 01:20 13.09898 81.20003 19375 ft 424 kts 96°
2026-05-04 01:21 13.09643 81.23023 19589 ft 424 kts 95°
2026-05-04 01:21 13.09387 81.26043 19786 ft 426 kts 96°
2026-05-04 01:21 13.09129 81.29084 19931 ft 428 kts 96°
2026-05-04 01:21 13.08874 81.32094 20117 ft 429 kts 96°
2026-05-04 01:22 13.08613 81.35155 20262 ft 431 kts 96°
2026-05-04 01:22 13.08352 81.38226 20403 ft 433 kts 96°
2026-05-04 01:22 13.08090 81.41303 20616 ft 433 kts 97°
2026-05-04 01:22 13.07827 81.44395 20735 ft 436 kts 97°
2026-05-04 01:23 13.07560 81.47506 20921 ft 437 kts 96°
2026-05-04 01:23 13.07298 81.50568 21120 ft 437 kts 96°
2026-05-04 01:23 13.07030 81.53689 21240 ft 441 kts 96°
2026-05-04 01:23 13.06761 81.56830 21465 ft 440 kts 96°
2026-05-04 01:24 13.06492 81.59964 21646 ft 442 kts 97°
2026-05-04 01:24 13.06220 81.63128 21791 ft 445 kts 98°
2026-05-04 01:24 13.05946 81.66287 22042 ft 444 kts 97°
2026-05-04 01:24 13.05677 81.69410 22196 ft 446 kts 97°
2026-05-04 01:25 13.05402 81.72586 22383 ft 447 kts 96°
2026-05-04 01:25 13.05125 81.75770 22583 ft 448 kts 96°
2026-05-04 01:25 13.04848 81.78970 22727 ft 451 kts 96°
2026-05-04 01:25 13.04570 81.82179 22952 ft 451 kts 97°
2026-05-04 01:26 13.04291 81.85391 23137 ft 453 kts 97°
2026-05-04 01:26 13.04010 81.88617 23300 ft 455 kts 97°
2026-05-04 01:26 13.03727 81.91849 23504 ft 455 kts 97°
2026-05-04 01:26 13.03445 81.95090 23632 ft 457 kts 97°
2026-05-04 01:27 13.03163 81.98315 23806 ft 458 kts 97°
2026-05-04 01:27 13.02877 82.01575 23987 ft 459 kts 97°
2026-05-04 01:27 13.02590 82.04845 24142 ft 461 kts 97°
2026-05-04 01:27 13.02302 82.08121 24334 ft 461 kts 97°
2026-05-04 01:28 13.02014 82.11401 24482 ft 463 kts 97°
2026-05-04 01:28 13.01724 82.14691 24660 ft 464 kts 97°
2026-05-04 01:28 13.01437 82.17947 24862 ft 464 kts 97°
2026-05-04 01:28 13.01145 82.21248 25056 ft 466 kts 97°
2026-05-04 01:29 13.00851 82.24559 25298 ft 466 kts 97°
2026-05-04 01:29 13.00558 82.27878 25491 ft 468 kts 97°
2026-05-04 01:29 13.00263 82.31217 25685 ft 470 kts 97°
2026-05-04 01:29 12.99965 82.34558 25949 ft 471 kts 97°
2026-05-04 01:30 12.99640 82.37906 26136 ft 472 kts 99°
2026-05-04 01:30 12.98990 82.41205 26357 ft 472 kts 106°
2026-05-04 01:30 12.98117 82.44414 26592 ft 472 kts 108°
2026-05-04 01:30 12.97188 82.47648 26799 ft 474 kts 108°
2026-05-04 01:31 12.96250 82.50892 27022 ft 475 kts 108°
2026-05-04 01:31 12.95309 82.54153 27233 ft 477 kts 108°
2026-05-04 01:31 12.94366 82.57430 27429 ft 478 kts 108°
2026-05-04 01:31 12.93423 82.60709 27650 ft 479 kts 108°
2026-05-04 01:32 12.92494 82.63942 27936 ft 478 kts 108°
2026-05-04 01:32 12.91554 82.67213 28223 ft 478 kts 108°
2026-05-04 01:32 12.90615 82.70481 28524 ft 477 kts 108°
2026-05-04 01:32 12.89678 82.73741 28803 ft 476 kts 108°
2026-05-04 01:33 12.88740 82.76998 29060 ft 476 kts 108°
2026-05-04 01:33 12.87801 82.80263 29351 ft 475 kts 108°
2026-05-04 01:33 12.86865 82.83513 29646 ft 475 kts 108°
2026-05-04 01:33 12.85930 82.86759 29904 ft 474 kts 108°
2026-05-04 01:34 12.84996 82.89999 30135 ft 474 kts 108°
2026-05-04 01:34 12.84071 82.93205 30348 ft 474 kts 108°
2026-05-04 01:34 12.83136 82.96447 30562 ft 474 kts 108°
2026-05-04 01:34 12.82198 82.99697 30778 ft 474 kts 108°
2026-05-04 01:35 12.81258 83.02951 31005 ft 474 kts 108°
2026-05-04 01:35 12.80333 83.06154 31207 ft 474 kts 108°
2026-05-04 01:35 12.79398 83.09387 31427 ft 473 kts 108°
2026-05-04 01:35 12.78463 83.12621 31643 ft 473 kts 108°
2026-05-04 01:36 12.77527 83.15856 31847 ft 473 kts 108°
2026-05-04 01:36 12.76590 83.19093 32046 ft 473 kts 108°
2026-05-04 01:36 12.75653 83.22325 32255 ft 473 kts 108°
2026-05-04 01:36 12.74716 83.25560 32454 ft 473 kts 108°
2026-05-04 01:37 12.73778 83.28796 32672 ft 473 kts 108°
2026-05-04 01:37 12.72842 83.32020 32870 ft 472 kts 108°
2026-05-04 01:37 12.71907 83.35243 33068 ft 472 kts 108°
2026-05-04 01:37 12.70983 83.38426 33245 ft 472 kts 108°
2026-05-04 01:38 12.70045 83.41652 33459 ft 472 kts 108°
2026-05-04 01:38 12.69109 83.44875 33637 ft 471 kts 109°
2026-05-04 01:38 12.68176 83.48082 33879 ft 470 kts 109°
2026-05-04 01:38 12.67244 83.51289 34080 ft 468 kts 109°
2026-05-04 01:39 12.66345 83.54496 34228 ft 469 kts 105°
2026-05-04 01:39 12.65755 83.57781 34392 ft 470 kts 100°
2026-05-04 01:39 12.65336 83.61104 34547 ft 470 kts 98°
2026-05-04 01:39 12.64996 83.64437 34695 ft 470 kts 97°
2026-05-04 01:40 12.64693 83.67729 34814 ft 470 kts 97°
2026-05-04 01:40 12.64087 83.74401 34841 ft 470 kts 97°
2026-05-04 01:41 12.63448 83.81069 34845 ft 470 kts 97°
2026-05-04 01:41 12.62785 83.87731 34844 ft 470 kts 97°
2026-05-04 01:42 12.62112 83.94403 34843 ft 469 kts 97°
2026-05-04 01:42 12.61442 84.01047 34845 ft 469 kts 97°
2026-05-04 01:43 12.60775 84.07649 34845 ft 469 kts 97°
2026-05-04 01:43 12.60103 84.14297 34845 ft 469 kts 97°
2026-05-04 01:44 12.59430 84.20931 34849 ft 469 kts 97°
2026-05-04 01:44 12.58870 84.26442 34848 ft 468 kts 97°
2026-05-04 01:45 12.58192 84.33094 34846 ft 468 kts 97°
2026-05-04 01:45 12.57178 84.43013 34848 ft 468 kts 97°
2026-05-04 01:46 12.56498 84.49654 34851 ft 468 kts 97°
2026-05-04 01:46 12.55816 84.56289 34854 ft 468 kts 97°
2026-05-04 01:47 12.55137 84.62879 34853 ft 468 kts 97°
2026-05-04 01:47 12.54452 84.69510 34853 ft 467 kts 97°
2026-05-04 01:48 12.53766 84.76139 34853 ft 467 kts 97°
2026-05-04 01:48 12.53084 84.82712 34857 ft 467 kts 97°
2026-05-04 01:49 12.52395 84.89337 34857 ft 467 kts 97°
2026-05-04 01:49 12.51708 84.95924 34856 ft 467 kts 97°
2026-05-04 01:50 12.51017 85.02539 34859 ft 467 kts 97°
2026-05-04 01:50 12.50323 85.09157 34859 ft 466 kts 97°
2026-05-04 01:51 12.49634 85.15724 34859 ft 466 kts 97°
2026-05-04 01:51 12.48939 85.22325 34859 ft 466 kts 97°
2026-05-04 01:52 12.48242 85.28934 34862 ft 466 kts 97°
2026-05-04 01:52 12.47548 85.35498 34862 ft 466 kts 97°
2026-05-04 01:53 12.46846 85.42112 34862 ft 466 kts 97°
2026-05-04 01:53 12.46150 85.48663 34867 ft 465 kts 97°
2026-05-04 01:54 12.45449 85.55249 34867 ft 465 kts 97°
2026-05-04 01:54 12.44746 85.61837 34867 ft 465 kts 97°
2026-05-04 01:55 12.44041 85.68424 34868 ft 465 kts 97°
2026-05-04 01:55 12.43334 85.75015 34868 ft 465 kts 97°
2026-05-04 01:56 12.42630 85.81562 34867 ft 465 kts 97°
2026-05-04 01:56 12.41921 85.88145 34867 ft 465 kts 97°
2026-05-04 01:57 12.41210 85.94732 34868 ft 465 kts 97°
2026-05-04 01:57 12.40500 86.01285 34868 ft 465 kts 97°
2026-05-04 01:58 12.39785 86.07882 34867 ft 465 kts 97°
2026-05-04 01:58 12.39073 86.14429 34867 ft 465 kts 97°
2026-05-04 01:59 12.38357 86.21001 34872 ft 465 kts 97°
2026-05-04 01:59 12.37637 86.27591 34874 ft 465 kts 97°
2026-05-04 02:00 12.36921 86.34136 34877 ft 465 kts 97°
2026-05-04 02:00 12.36198 86.40718 34881 ft 465 kts 97°
2026-05-04 02:01 12.35475 86.47295 34877 ft 465 kts 97°
2026-05-04 02:01 12.34749 86.53878 34875 ft 465 kts 97°
2026-05-04 02:02 12.34023 86.60460 34881 ft 464 kts 97°
2026-05-04 02:02 12.33300 86.66993 34880 ft 464 kts 97°
2026-05-04 02:03 12.32571 86.73561 34881 ft 464 kts 97°
2026-05-04 02:03 12.31841 86.80128 34875 ft 464 kts 97°
2026-05-04 02:04 12.31112 86.86667 34881 ft 464 kts 97°
2026-05-04 02:04 12.30383 86.93195 34881 ft 464 kts 97°
2026-05-04 02:05 12.29649 86.99749 34881 ft 463 kts 98°
2026-05-04 02:05 12.28914 87.06306 34884 ft 463 kts 98°
2026-05-04 02:06 12.28179 87.12848 34886 ft 463 kts 98°
2026-05-04 02:06 12.27446 87.19351 34886 ft 463 kts 98°
2026-05-04 02:07 12.26707 87.25896 34889 ft 463 kts 98°
2026-05-04 02:07 12.25967 87.32442 34883 ft 463 kts 98°
2026-05-04 02:08 12.25224 87.39000 34889 ft 463 kts 98°
2026-05-04 02:08 12.24484 87.45507 34883 ft 463 kts 98°
2026-05-04 02:09 12.23739 87.52052 34884 ft 463 kts 98°
2026-05-04 02:09 12.22993 87.58588 34892 ft 463 kts 98°
2026-05-04 02:10 12.22246 87.65123 34892 ft 463 kts 98°
2026-05-04 02:10 12.21502 87.71617 34890 ft 463 kts 99°
2026-05-04 02:11 12.20750 87.78167 34895 ft 464 kts 99°
2026-05-04 02:11 12.19994 87.84734 34893 ft 464 kts 99°
2026-05-04 02:12 12.19238 87.91295 34898 ft 464 kts 99°
2026-05-04 02:12 12.18485 87.97812 34898 ft 464 kts 99°
2026-05-04 02:13 12.17725 88.04369 34898 ft 464 kts 99°
2026-05-04 02:13 12.16964 88.10928 34893 ft 464 kts 99°
2026-05-04 02:14 12.16205 88.17447 34899 ft 464 kts 99°
2026-05-04 02:14 12.15443 88.23995 34899 ft 464 kts 99°
2026-05-04 02:15 12.14677 88.30556 34899 ft 464 kts 99°
2026-05-04 02:15 12.13911 88.37102 34907 ft 464 kts 99°
2026-05-04 02:16 12.13147 88.43613 34905 ft 464 kts 99°
2026-05-04 02:16 12.12376 88.50177 34904 ft 464 kts 98°
2026-05-04 02:17 12.11604 88.56734 34903 ft 464 kts 98°
2026-05-04 02:17 12.10835 88.63248 34902 ft 464 kts 98°
2026-05-04 02:18 12.10075 88.69804 34907 ft 465 kts 98°
2026-05-04 02:18 12.09462 88.76381 34912 ft 465 kts 97°
2026-05-04 02:19 12.08905 88.82972 34907 ft 465 kts 97°
2026-05-04 02:19 12.08339 88.89566 34909 ft 466 kts 97°
2026-05-04 02:20 12.07760 88.96130 34909 ft 467 kts 97°
2026-05-04 02:20 12.07171 89.02741 34794 ft 467 kts 97°
2026-05-04 02:21 12.06876 89.06049 34568 ft 466 kts 97°
2026-05-04 02:21 12.06580 89.09355 34349 ft 466 kts 97°
2026-05-04 02:21 12.06285 89.12653 34125 ft 467 kts 97°
2026-05-04 02:21 12.05989 89.15958 33901 ft 467 kts 97°
2026-05-04 02:22 12.05691 89.19268 33646 ft 468 kts 97°
2026-05-04 02:22 12.05393 89.22586 33395 ft 468 kts 97°
2026-05-04 02:22 12.05099 89.25855 33148 ft 468 kts 97°
2026-05-04 02:22 12.04799 89.29181 32896 ft 469 kts 97°
2026-05-04 02:23 12.04499 89.32510 32656 ft 470 kts 97°
2026-05-04 02:23 12.04199 89.35833 32422 ft 470 kts 97°
2026-05-04 02:23 12.03898 89.39155 32169 ft 469 kts 97°
2026-05-04 02:23 12.03598 89.42475 31931 ft 469 kts 97°
2026-05-04 02:24 12.03296 89.45798 31696 ft 469 kts 96°
2026-05-04 02:24 12.02995 89.49118 31461 ft 469 kts 96°
2026-05-04 02:24 12.02693 89.52441 31229 ft 469 kts 96°
2026-05-04 02:24 12.02394 89.55720 31002 ft 470 kts 96°
2026-05-04 02:25 12.02091 89.59043 30779 ft 470 kts 96°
2026-05-04 02:25 12.01788 89.62369 30550 ft 470 kts 96°
2026-05-04 02:25 12.01483 89.65701 30324 ft 470 kts 96°
2026-05-04 02:25 12.01179 89.69030 30101 ft 470 kts 96°
2026-05-04 02:26 12.00875 89.72346 29856 ft 468 kts 96°
2026-05-04 02:26 12.00571 89.75660 29593 ft 466 kts 96°
2026-05-04 02:26 12.00269 89.78958 29326 ft 464 kts 96°
2026-05-04 02:26 11.99968 89.82233 29066 ft 462 kts 96°
2026-05-04 02:27 11.99667 89.85496 28811 ft 460 kts 96°
2026-05-04 02:27 11.99371 89.88707 28559 ft 459 kts 96°
2026-05-04 02:27 11.99072 89.91944 28305 ft 457 kts 96°
2026-05-04 02:27 11.98774 89.95175 28053 ft 455 kts 96°
2026-05-04 02:28 11.98476 89.98391 27792 ft 453 kts 96°
2026-05-04 02:28 11.98179 90.01588 27570 ft 451 kts 96°
2026-05-04 02:28 11.97884 90.04777 27311 ft 450 kts 96°
2026-05-04 02:28 11.97588 90.07955 27068 ft 448 kts 96°
2026-05-04 02:29 11.97294 90.11116 26828 ft 446 kts 96°
2026-05-04 02:29 11.97004 90.14229 26593 ft 445 kts 96°
2026-05-04 02:29 11.96711 90.17373 26355 ft 443 kts 96°
2026-05-04 02:29 11.96418 90.20511 26120 ft 442 kts 96°
2026-05-04 02:30 11.96126 90.23631 25888 ft 440 kts 96°
2026-05-04 02:30 11.95836 90.26737 25664 ft 439 kts 96°
2026-05-04 02:30 11.95545 90.29835 25431 ft 437 kts 96°
2026-05-04 02:30 11.95255 90.32929 25204 ft 436 kts 96°
2026-05-04 02:31 11.94969 90.35969 24981 ft 434 kts 96°
2026-05-04 02:31 11.94681 90.39035 24756 ft 433 kts 96°
2026-05-04 02:31 11.94392 90.42099 24534 ft 432 kts 96°
2026-05-04 02:31 11.94105 90.45146 24315 ft 431 kts 96°
2026-05-04 02:32 11.93818 90.48193 24096 ft 429 kts 96°
2026-05-04 02:32 11.93531 90.51231 23881 ft 428 kts 96°
2026-05-04 02:32 11.93248 90.54216 23668 ft 427 kts 96°
2026-05-04 02:32 11.92962 90.57237 23444 ft 426 kts 96°
2026-05-04 02:33 11.92677 90.60243 23182 ft 424 kts 96°
2026-05-04 02:33 11.92393 90.63235 22916 ft 422 kts 96°
2026-05-04 02:33 11.92110 90.66220 22672 ft 421 kts 96°
2026-05-04 02:33 11.91828 90.69186 22422 ft 419 kts 96°
2026-05-04 02:34 11.91641 90.71147 22254 ft 418 kts 96°
2026-05-04 02:34 11.91360 90.74094 22005 ft 416 kts 96°
2026-05-04 02:34 11.91080 90.77032 21754 ft 414 kts 96°
2026-05-04 02:34 11.90709 90.80911 21431 ft 413 kts 96°
2026-05-04 02:35 11.90524 90.82845 21271 ft 412 kts 96°
2026-05-04 02:35 11.90246 90.85748 21031 ft 410 kts 96°
2026-05-04 02:35 11.89968 90.88649 20791 ft 408 kts 96°
2026-05-04 02:35 11.89692 90.91534 20554 ft 407 kts 96°
2026-05-04 02:36 11.89416 90.94405 20321 ft 405 kts 96°
2026-05-04 02:36 11.89141 90.97266 20088 ft 403 kts 96°
2026-05-04 02:36 11.88866 91.00116 19856 ft 402 kts 96°
2026-05-04 02:36 11.88596 91.02920 19629 ft 400 kts 96°
2026-05-04 02:37 11.88323 91.05749 19398 ft 399 kts 96°
2026-05-04 02:37 11.88052 91.08561 19175 ft 397 kts 96°
2026-05-04 02:37 11.87781 91.11368 18947 ft 396 kts 96°
2026-05-04 02:37 11.87510 91.14167 18727 ft 394 kts 96°
2026-05-04 02:38 11.87241 91.16946 18502 ft 393 kts 96°
2026-05-04 02:38 11.86973 91.19716 18279 ft 391 kts 96°
2026-05-04 02:38 11.86708 91.22441 18039 ft 389 kts 96°
2026-05-04 02:38 11.86441 91.25190 17780 ft 388 kts 96°
2026-05-04 02:39 11.86170 91.27919 17526 ft 386 kts 98°
2026-05-04 02:39 11.85626 91.30586 17281 ft 383 kts 106°
2026-05-04 02:39 11.84881 91.33194 17037 ft 381 kts 108°
2026-05-04 02:39 11.84092 91.35774 16784 ft 379 kts 108°
2026-05-04 02:40 11.83295 91.38335 16533 ft 378 kts 108°
2026-05-04 02:40 11.82497 91.40887 16292 ft 376 kts 109°
2026-05-04 02:40 11.81701 91.43429 16050 ft 375 kts 108°
2026-05-04 02:40 11.80918 91.45926 15813 ft 373 kts 109°
2026-05-04 02:41 11.80127 91.48446 15578 ft 372 kts 109°
2026-05-04 02:41 11.79340 91.50953 15345 ft 370 kts 108°
2026-05-04 02:41 11.78555 91.53454 15102 ft 368 kts 108°
2026-05-04 02:41 11.77775 91.55938 14864 ft 367 kts 108°
2026-05-04 02:42 11.76995 91.58419 14636 ft 365 kts 108°
2026-05-04 02:42 11.76220 91.60884 14406 ft 364 kts 109°
2026-05-04 02:42 11.75457 91.63309 14186 ft 363 kts 108°
2026-05-04 02:42 11.74687 91.65758 13957 ft 362 kts 108°
2026-05-04 02:43 11.73917 91.68205 13745 ft 360 kts 108°
2026-05-04 02:43 11.73151 91.70640 13489 ft 359 kts 108°
2026-05-04 02:43 11.72390 91.73056 13236 ft 357 kts 108°
2026-05-04 02:43 11.71630 91.75471 12989 ft 355 kts 108°
2026-05-04 02:44 11.70886 91.77831 12732 ft 353 kts 108°
2026-05-04 02:44 11.70134 91.80217 12483 ft 351 kts 108°
2026-05-04 02:44 11.69386 91.82590 12240 ft 350 kts 108°
2026-05-04 02:44 11.68642 91.84949 12009 ft 348 kts 108°
2026-05-04 02:45 11.67902 91.87295 11763 ft 346 kts 108°
2026-05-04 02:45 11.67175 91.89598 11524 ft 345 kts 108°
2026-05-04 02:45 11.66441 91.91923 11288 ft 343 kts 108°
2026-05-04 02:45 11.65711 91.94238 11052 ft 342 kts 108°
2026-05-04 02:46 11.64982 91.96545 10816 ft 341 kts 108°
2026-05-04 02:46 11.64257 91.98841 10581 ft 339 kts 108°
2026-05-04 02:46 11.63534 92.01129 10350 ft 338 kts 108°
2026-05-04 02:46 11.62818 92.03393 10183 ft 327 kts 108°
2026-05-04 02:47 11.62139 92.05540 10101 ft 310 kts 108°
2026-05-04 02:47 11.61495 92.07578 10027 ft 295 kts 108°
2026-05-04 02:47 11.60870 92.09554 9948 ft 291 kts 108°
2026-05-04 02:47 11.60256 92.11493 9882 ft 291 kts 108°
2026-05-04 02:48 11.59632 92.13464 9811 ft 291 kts 108°
2026-05-04 02:48 11.59009 92.15433 9736 ft 291 kts 108°
2026-05-04 02:48 11.58387 92.17398 9660 ft 291 kts 108°
2026-05-04 02:48 11.57765 92.19359 9583 ft 290 kts 108°
2026-05-04 02:49 11.57144 92.21320 9509 ft 290 kts 108°
2026-05-04 02:49 11.56525 92.23272 9152 ft 288 kts 108°
2026-05-04 02:49 11.55909 92.25217 8677 ft 287 kts 108°
2026-05-04 02:49 11.55308 92.27113 8310 ft 282 kts 108°
2026-05-04 02:50 11.54706 92.29011 7953 ft 279 kts 108°
2026-05-04 02:50 11.54111 92.30886 7621 ft 276 kts 108°
2026-05-04 02:50 11.53521 92.32745 7266 ft 274 kts 108°
2026-05-04 02:50 11.52938 92.34582 6930 ft 271 kts 108°
2026-05-04 02:51 11.52359 92.36404 6595 ft 269 kts 108°
2026-05-04 02:51 11.51785 92.38213 6255 ft 266 kts 108°
2026-05-04 02:51 11.51216 92.40005 5908 ft 264 kts 108°
2026-05-04 02:51 11.50658 92.41760 5600 ft 260 kts 108°
2026-05-04 02:52 11.50108 92.43490 5357 ft 254 kts 108°
2026-05-04 02:52 11.49570 92.45186 5101 ft 251 kts 108°
2026-05-04 02:52 11.49008 92.46954 4738 ft 269 kts 108°
2026-05-04 02:52 11.48433 92.48762 4374 ft 272 kts 108°
2026-05-04 02:53 11.47850 92.50595 4028 ft 270 kts 108°
2026-05-04 02:53 11.47273 92.52408 3691 ft 268 kts 108°
2026-05-04 02:53 11.46700 92.54208 3372 ft 264 kts 108°
2026-05-04 02:53 11.46150 92.55955 3232 ft 252 kts 106°
2026-05-04 02:54 11.45895 92.57651 3092 ft 235 kts 85°
2026-05-04 02:54 11.46441 92.59168 2847 ft 226 kts 60°
2026-05-04 02:54 11.47403 92.60387 2501 ft 223 kts 43°
2026-05-04 02:54 11.48623 92.61347 2197 ft 221 kts 36°
2026-05-04 02:55 11.51126 92.63182 2120 ft 221 kts 38°
2026-05-04 02:55 11.52359 92.64114 2136 ft 221 kts 37°
2026-05-04 02:55 11.53581 92.65040 2133 ft 213 kts 38°
2026-05-04 02:56 11.54729 92.65904 2030 ft 199 kts 37°
2026-05-04 02:56 11.55806 92.66711 1792 ft 189 kts 37°
2026-05-04 02:56 11.56840 92.67486 1542 ft 180 kts 37°
2026-05-04 02:56 11.57811 92.68216 1329 ft 165 kts 37°
2026-05-04 02:57 11.58694 92.68879 1091 ft 150 kts 38°
2026-05-04 02:57 11.59506 92.69489 922 ft 142 kts 38°
2026-05-04 02:57 11.60298 92.70085 757 ft 141 kts 38°
2026-05-04 02:57 11.61093 92.70682 607 ft 142 kts 38°
2026-05-04 02:58 11.61881 92.71274 405 ft 142 kts 36°
2026-05-04 02:58 11.62671 92.71868 229 ft 141 kts 37°
2026-05-04 02:58 11.63454 92.72456 55 ft 137 kts 37°
2026-05-04 02:58 11.64132 92.72974 32 ft 89 kts 37°
2026-05-04 02:59 11.64475 92.73234 28 ft 48 kts 37°
2026-05-04 02:59 11.64594 92.73324 30 ft 21 kts 36°
2026-05-04 02:59 11.64786 92.73463 25 ft 35 kts 34°
2026-05-04 02:59 11.64977 92.73604 24 ft 33 kts 36°
2026-05-04 03:00 11.65152 92.73734 20 ft 18 kts 35°
2026-05-04 03:00 11.65228 92.73750 19 ft 11 kts 330°
2026-05-04 03:00 11.65269 92.73695 18 ft 9 kts 310°
2026-05-04 03:00 11.65277 92.73684 19 ft 0 kts 308°